Location: *
(43.4667°N, 11.6833°E)
Time: 10:43:50
(UTC+00:00)

Meteor 1-14 Rocket - Pass Details

Date: 19 July 2019
Orbit: 834 x 919 km, 81.3° (Epoch: 20 August)

Event Time Altitude Azimuth Distance (km) Brightness Sun altitude
Exits shadow 23:05:55 56° 124° (ESE) 1,057 4.4 -25.7°
Maximum altitude 23:06:33 59° 95° (E) 1,025 4.5 -25.7°
Drops below altitude 10° 23:12:22 10° 17° (NNE) 2,598 7.6 -25.8°
Sets 23:14:53 0° 14° (NNE) 3,552 8.7 -25.8°
